(751) Faina
ephemeris date magn radius delta ra dec elong phase
Today28 Jul 202614.52.768 AU3.677 AU10h03m+23°52'22.7°8.2°
Opposition12 Apr 202713.32.940 AU1.977 AU13h50m+09°45'160.2°6.6°
(751) Faina - 2026-07-28
astro.vanbuitenen.nl


 
-1 year
-1 month
-1 day
Now
+1 day
+1 month
+1 year

The interactive orbit chart above shows the body's path through the solar system and its position at the given date. Green and blue lines are shown perpendicular to the ecliptic plane: Green if the path is above the ecliptic plane, blue if it is below. (Left-click and drag to rotate the view; Right-click and drag to move the view; Use scroll wheel to zoom in our out.)

The orbital elements of Faina are:

            e (Eccentricity)                : 0.1519564
            a (Semimajor axis)              : 2.5518239
            i (Inclination)                 : 15.58983
            Ω (Longitude of ascending node) : 78.78980
            ω (Argument of perihelion)      : 302.89022
            M (Mean anomaly)                : 104.81098
            Epoch                           : 2026 Jun 09

            L (Longitude of perihelion)     : 22.66670
            B (Latitude of perihelion)      : -13.04239
            P (Orbital period in years)     : 4.08            
        

The light curve chart below shows the estimated development of the minor planet's magnitude.


The all-sky chart below shows the path of the minor planet over the same period as the light curve. The current position is marked yellow.





The following chart shows the path of the minor planet in the next few days. The field of view is optimized for (~10x50) binoculars and finderscopes.




Ephemerides:
Date       Time       RA (2000)    DEC (2000)    delta   radius  elong  phase   PA    magn
2026-07-28 00:00 UT   10 03 26.7   +23 52 29     3.677    2.768   22.7    8.2    83   14.5 
2026-07-28 22:26 UT   10 04 58.8   +23 44 29     3.682    2.769   22.3    8.0    82   14.5 
2026-07-29 00:00 UT   10 05 05.2   +23 43 55     3.682    2.769   22.3    8.0    82   14.5 
2026-07-30 00:00 UT   10 06 43.7   +23 35 20     3.687    2.771   21.8    7.8    81   14.5 
2026-07-31 00:00 UT   10 08 22.1   +23 26 44     3.693    2.772   21.3    7.7    81   14.5 
2026-08-01 00:00 UT   10 10 00.4   +23 18 05     3.698    2.773   20.9    7.5    80   14.5 
2026-08-02 00:00 UT   10 11 38.7   +23 09 26     3.703    2.774   20.4    7.3    79   14.5 
2026-08-03 00:00 UT   10 13 16.8   +23 00 45     3.707    2.775   20.0    7.2    78   14.5 
2026-08-04 00:00 UT   10 14 54.8   +22 52 02     3.712    2.777   19.5    7.0    77   14.5 
2026-08-05 00:00 UT   10 16 32.8   +22 43 18     3.717    2.778   19.1    6.9    76   14.5 
2026-08-06 00:00 UT   10 18 10.6   +22 34 33     3.721    2.779   18.6    6.7    76   14.5 
2026-08-07 00:00 UT   10 19 48.4   +22 25 46     3.726    2.780   18.2    6.5    75   14.5 
2026-08-08 00:00 UT   10 21 26.0   +22 16 59     3.730    2.782   17.8    6.4    73   14.5 
2026-08-09 00:00 UT   10 23 03.6   +22 08 10     3.734    2.783   17.4    6.2    72   14.5 
2026-08-10 00:00 UT   10 24 41.1   +21 59 20     3.738    2.784   17.0    6.1    71   14.5 
2026-08-11 00:00 UT   10 26 18.4   +21 50 28     3.742    2.785   16.6    6.0    70   14.5 
2026-08-12 00:00 UT   10 27 55.7   +21 41 36     3.745    2.786   16.2    5.8    69   14.5 
2026-08-13 00:00 UT   10 29 32.8   +21 32 43     3.749    2.788   15.8    5.7    67   14.5 
2026-08-14 00:00 UT   10 31 09.9   +21 23 49     3.752    2.789   15.4    5.5    66   14.5 
2026-08-15 00:00 UT   10 32 46.8   +21 14 54     3.756    2.790   15.0    5.4    64   14.5 
2026-08-16 00:00 UT   10 34 23.7   +21 05 58     3.759    2.791   14.7    5.3    63   14.5 
2026-08-17 00:00 UT   10 36 00.4   +20 57 01     3.762    2.792   14.4    5.2    61   14.5 
2026-08-18 00:00 UT   10 37 37.0   +20 48 04     3.765    2.793   14.0    5.0    60   14.5 


    Terminology:
            
    delta:  distance between minor planet and earth in AU
    radius: distance between minor planet and sun in AU
    magn:   magnitude (brightness) estimate    
    ra:     right ascension in hours (24h = 360deg)
    dec:    declination in degrees
    elong:  elongation in degrees (angle sun-earth-minor planet)    
    phase:  phase angle in degrees (angle sun-minor planet-earth)        
    AU:     Astronomical Unit (mean distance between earth and sun: 149597870.7 km
    

Orbital elements provided by the MPC (Minor Planet Center).
Calculations by a modified version of AAPlus, a C# implementation of the AA+ project by PJ Naughter from the algorithms presented in the book "Astronomical Algorithms" by Jean Meeus.
NGC2000 dso catalog and star labels from VizieR as provided by the Strasbourg astronomical Data Center.
Tycho2 catalog from the ESO archive.